{"data":{"norad_id":68819,"intl_designator":"2026-089T","name":"STARLINK-37409","alt_names":[],"object_type":"PAYLOAD","status":"ACTIVE","operator":null,"country":"US","launch_date":"2026-04-23","launch_site_code":"AFWTR","launch_vehicle":null,"mission":null,"orbit_class":"UNKNOWN","rcs_meters":null,"size_class":null,"mass_kg":null,"dimensions":null,"purposes":["comms"],"wikipedia_slug":null,"has_3d_model":false,"image_url":null,"decayed_at":null,"tle_current":{"epoch":"2026-05-25T02:34:32.580192Z","epoch_age_seconds":62828,"freshness":"FRESH","line1":"1 68819U 26089T   26145.10732153  .00257420  00000+0  16760-2 0  9998","line2":"2 68819  97.2852 351.7714 0002259  69.3760 290.7747 15.75178516  5067","mean_motion":15.75178516,"eccentricity":0.0002259,"inclination_deg":97.2852,"raan_deg":351.7714,"arg_perigee_deg":69.376,"mean_anomaly_deg":290.7747,"bstar":0.001676,"rev_number":506,"period_min":91.418209769438,"perigee_km":342.60468278232,"apogee_km":345.64179995937,"semimajor_km":6722.2602413708,"source":"CELESTRAK","updated_at":"2026-05-25T13:38:22.043668Z"}}}